[[{"header":{"parameterUnit":"m.s-1","parameterCategory":1,"la1":30.2991,"la2":30.254,"lo1":-89.0895,"lo2":-89.0444,"dy":0.0017,"dx":0.0017,"nx":28,"ny":28,"refTime":"2024-12-24T03:00:00:Z","depth":0,"parameterNumber":2,"parameterNumberName":"U-component_of_WINDS"},"data":[0,0,0,0,0,0,0,0,0,0,0,0,0,0,0,0,0,0,0,0,0,0,0,0,0,0,0,0,0,0,0,0,0,0,0,0,0,0,0,0,0,0,0,0,0,0,0,0,0,0,0,0,0,0,0,0,0,0,-4.4104,-4.4105,0,-4.4232,-4.4233,-4.4235,-4.4116,-4.4111,-4.4106,-4.4101,-4.4238,-4.4246,-4.4254,0,0,0,0,0,0,0,0,0,0,0,0,0,-4.3759,-4.3766,-4.4103,-4.4105,-4.4107,-4.4232,-4.4233,-4.4235,-4.4116,-4.4111,-4.4105,-4.4099,-4.4235,-4.4245,-4.4254,0,0,0,0,0,0,0,0,0,0,0,0,0,-4.39,-4.3768,-4.4103,-4.4062,-4.406,-4.4231,-4.4233,-4.4236,-4.4118,-4.411,-4.4103,-4.4096,-4.4232,-4.4244,-4.4256,-4.4475,0,0,-4.4293,-4.4298,0,0,0,0,0,0,0,0,-4.3892,-4.3913,-4.4067,-4.4065,-4.4063,-4.415,-4.4162,-4.4316,-4.412,-4.4096,-4.4101,-4.4093,-4.4215,-4.4228,-4.4268,-4.4482,-4.4487,-4.4294,-4.4301,-4.4307,-4.431,0,0,0,0,0,0,0,-4.3883,-4.3907,-4.4154,-4.4069,-4.4067,-4.4039,-4.4051,-4.419,-4.4194,-4.4097,-4.4089,-4.4106,-4.4212,-4.4257,-4.427,-4.4489,-4.4294,-4.4304,-4.4312,-4.4317,-4.4889,-4.4896,0,0,0,0,0,0,-4.3877,-4.3899,-4.415,-4.4158,-4.3958,-4.4051,-4.4064,-4.413,-4.4193,-4.4195,-4.4112,-4.41,-4.4239,-4.4256,-4.4275,-4.4536,-4.4306,-4.4318,-4.4325,-4.4881,-4.489,-4.4899,0,0,0,0,0,0,-4.387,-4.39,-4.4145,-4.4027,-4.4055,-4.4064,-4.4139,-4.4136,-4.418,-4.4203,-4.4204,-4.4156,-4.4234,-4.4257,-4.4426,-4.4539,-4.4323,-4.4334,-4.4872,-4.4884,-4.4895,-4.506,0,0,0,0,0,0,-4.386,-4.3898,-4.3981,-4.4029,-4.4062,-4.4294,-4.4146,-4.4144,-4.4201,-4.4186,-4.4245,-4.4248,-4.423,-4.4408,-4.4438,-4.4551,-4.4344,-4.4861,-4.4877,-4.4891,-4.5044,-4.5076,-4.5103,0,0,0,0,0,-4.3849,-4.4024,-4.3986,-4.4017,-4.4166,-4.43,-4.4319,-4.4295,-4.421,-4.4294,-4.4309,-4.4246,-4.4521,-4.4426,-4.4459,-4.4578,-4.4854,-4.4873,-4.489,-4.5031,-4.507,-4.5102,0,0,0,0,0,0,-4.3991,-4.403,-4.3988,-4.4184,-4.424,-4.428,-4.4385,-4.4336,-4.4418,-4.4402,-4.4368,-4.4383,-4.456,-4.4585,-4.4479,-4.4793,-4.4674,-4.4699,-4.4771,-4.4807,-4.4836,-4.4827,-4.4354,0,0,0,0,0,-4.4045,-4.415,-4.4178,-4.4348,-4.4378,-4.4377,-4.4435,-4.441,-4.4467,-4.4491,-4.4518,-4.4577,-4.4676,-4.4743,-4.4836,-4.5046,-4.5058,-4.5144,-4.5173,-4.5197,-4.522,-4.5333,-4.5372,-4.4957,-4.4957,-4.4957,0,0,-4.4159,-4.4192,-4.4261,-4.4378,-4.4418,-4.4528,-4.4398,-4.452,-4.4602,-4.451,-4.467,-4.4692,-4.4755,-4.4946,-4.5031,-4.4972,-4.5337,-4.522,-4.5239,-4.5249,-4.5356,-4.5395,-4.543,-4.4969,-4.4967,-4.4965,0,0,-4.4422,-4.4457,-4.4603,-4.4645,-4.4707,-4.4704,-4.4739,-4.4787,-4.4797,-4.4957,-4.489,-4.4987,-4.5159,-4.5207,-4.5254,-4.5533,-4.5478,-4.5564,-4.5718,-4.5828,-4.5861,-4.589,-4.599,-4.6026,-4.5586,-4.5587,-4.5587,0,-4.4555,-4.4717,-4.4684,-4.4811,-4.4865,-4.4784,-4.4931,-4.4974,-4.5064,-4.5104,-4.5036,-4.5249,-4.5286,-4.5487,-4.5555,-4.5595,-4.5635,-4.5558,-4.5859,-4.5887,-4.5914,-4.6009,-4.6047,-4.5597,-4.5595,-4.5594,-4.5593,0,-4.4879,-4.4992,-4.5102,-4.5189,-4.5255,-4.5392,-4.538,-4.5451,-4.542,-4.5425,-4.5589,-4.563,-4.573,-4.5775,-4.5747,-4.5972,-4.5933,-4.5863,-4.5743,-4.5964,-4.6053,-4.6089,-4.5611,-4.5607,-4.5604,-4.5602,0,0,-4.5238,-4.5302,-4.5344,-4.5382,-4.5443,-4.553,-4.5663,-4.5758,-4.582,-4.5884,-4.5996,-4.6142,-4.6077,-4.613,-4.6107,-4.6204,-4.6422,-4.6121,-4.6122,-4.6177,-4.6673,-4.6726,-4.6769,-4.6385,-4.6392,-4.6398,-4.6668,0,-4.5503,-4.5733,-4.5706,-4.5926,-4.603,-4.5954,-4.607,-4.612,-4.6128,-4.6219,-4.6228,-4.6332,-4.6238,-4.6269,-4.6362,-4.6376,-4.6522,-4.6356,-4.649,-4.6496,-4.6478,-4.6816,-4.6873,-4.7126,-4.6702,-4.6708,-4.6712,0,-4.5845,-4.5919,-4.6149,-4.6192,-4.6235,-4.634,-4.6424,-4.6511,-4.6567,-4.6566,-4.6625,-4.6584,-4.6718,-4.6594,-4.6779,-4.6667,-4.6719,-4.6735,-4.6744,-4.6757,-4.6619,-4.6839,-4.7206,-4.7245,-4.6767,-4.6762,-4.6758,0,-4.6084,-4.6242,-4.6399,-4.6434,-4.6489,-4.6564,-4.6591,-4.6639,-4.6698,-4.6772,-4.681,-4.69,-4.695,-4.702,-4.7005,-4.6916,-4.7194,-4.7069,-4.7198,-4.7199,-4.7262,-4.7259,-4.7644,-4.7294,-4.7294,-4.7293,-4.7292,0,-4.6385,-4.6529,-4.6507,-4.6605,-4.6764,-4.6731,-4.689,-4.6907,-4.695,-4.705,-4.6989,-4.7085,-4.7058,-4.7152,-4.7141,-4.7296,-4.7319,-4.7323,-4.7318,-4.7329,-4.7329,-4.7365,-4.7347,-4.7303,-4.7301,-4.7299,-4.7297,0,-4.6681,-4.6672,-4.6839,-4.6876,-4.6889,-4.7004,-4.7037,-4.7129,-4.713,-4.7258,-4.7286,-4.729,-4.7397,-4.7388,-4.751,-4.7503,-4.7695,-4.7669,-4.7676,-4.7671,-4.7801,-4.779,-4.8225,-4.828,-4.7893,-4.7897,-4.79,0,-4.6873,-4.6982,-4.703,-4.7092,-4.7123,-4.7223,-4.7282,-4.7254,-4.7318,-4.7389,-4.7473,-4.7574,-4.7654,-4.783,-4.7845,-4.7937,-4.7914,-4.806,-4.7928,-4.7935,-4.7918,-4.7912,-4.7923,-4.8087,-4.8091,-4.8095,-4.8098,0,-4.7217,-4.7207,-4.7293,-4.7379,-4.745,-4.7516,-4.7576,-4.763,-4.7608,-4.7684,-4.7792,-4.7854,-4.7977,-4.8079,-4.8167,-4.8195,-4.8144,-4.8139,-4.8174,-4.8187,-4.8187,-4.8189,-4.7748,-4.8129,-4.8126,-4.8124,-4.8122,-4.8121,-4.7468,-4.7561,-4.7608,-4.7707,-4.7748,-4.7805,-4.7893,-4.7905,-4.7994,-4.8091,-4.8069,-4.8192,-4.8243,-4.8355,-4.8392,-4.8488,-4.8436,-4.8487,-4.85,-4.8513,-4.8528,-4.817,-4.8504,-4.8503,-4.8502,-4.8502,-4.8501,0,-4.7809,-4.7835,-4.7926,-4.801,-4.8088,-4.803,-4.8093,-4.8162,-4.827,-4.8322,-4.8401,-4.8525,-4.8624,-4.8645,-4.8739,-4.8812,-4.8791,-4.8838,-4.8833,-4.8841,-4.857,-4.853,-4.8853,-4.8853,-4.8853,-4.8853,-4.8853,-4.8853,-4.7996,-4.8149,-4.8145,-4.8318,-4.8343,-4.8461,-4.8502,-4.8555,-4.8596,-4.8737,-4.8818,-4.883,-4.887,-4.8966,-4.9054,-4.9058,-4.9096,-4.9153,-4.9148,-4.8895,-4.886,-4.8826,-4.8789,-4.9161,-4.9161,-4.9411,-4.9413,-4.9415]},{"header":{"parameterUnit":"m.s-1","parameterCategory":1,"la1":30.2991,"la2":30.254,"lo1":-89.0895,"lo2":-89.0444,"dy":0.0017,"dx":0.0017,"nx":28,"ny":28,"refTime":"2024-12-24T03:00:00:Z","depth":0,"parameterNumber":3,"parameterNumberName":"V-component_of_WINDS"},"data":[0,0,0,0,0,0,0,0,0,0,0,0,0,0,0,0,0,0,0,0,0,0,0,0,0,0,0,0,0,0,0,0,0,0,0,0,0,0,0,0,0,0,0,0,0,0,0,0,0,0,0,0,0,0,0,0,0,0,-1.4881,-1.4881,0,-1.4921,-1.4921,-1.4921,-1.4916,-1.4915,-1.4915,-1.4914,-1.4954,-1.4956,-1.4957,0,0,0,0,0,0,0,0,0,0,0,0,0,-1.4798,-1.48,-1.4881,-1.4881,-1.4882,-1.492,-1.4921,-1.4922,-1.4916,-1.4915,-1.4915,-1.4914,-1.4954,-1.4956,-1.4958,0,0,0,0,0,0,0,0,0,0,0,0,0,-1.4836,-1.48,-1.488,-1.4884,-1.4884,-1.492,-1.4921,-1.4922,-1.4916,-1.4915,-1.4914,-1.4913,-1.4953,-1.4955,-1.4958,-1.4993,0,0,-1.4966,-1.4967,0,0,0,0,0,0,0,0,-1.4834,-1.4839,-1.4883,-1.4883,-1.4884,-1.4912,-1.4907,-1.4946,-1.4917,-1.4904,-1.4914,-1.4913,-1.4941,-1.4944,-1.4954,-1.4995,-1.4997,-1.4966,-1.4967,-1.4968,-1.4969,0,0,0,0,0,0,0,-1.4831,-1.4837,-1.4896,-1.4883,-1.4884,-1.4883,-1.4887,-1.4914,-1.4928,-1.4905,-1.4905,-1.491,-1.4941,-1.4952,-1.4955,-1.4997,-1.4966,-1.4968,-1.4969,-1.497,-1.5068,-1.5069,0,0,0,0,0,0,-1.4828,-1.4835,-1.4895,-1.4898,-1.4856,-1.4885,-1.489,-1.4904,-1.4927,-1.493,-1.4911,-1.4909,-1.4948,-1.4952,-1.4956,-1.4998,-1.4968,-1.4971,-1.4972,-1.5067,-1.5068,-1.507,0,0,0,0,0,0,-1.4826,-1.4833,-1.4893,-1.4866,-1.4874,-1.4887,-1.4904,-1.4906,-1.4916,-1.4931,-1.4934,-1.4919,-1.4947,-1.4953,-1.4984,-1.5,-1.4972,-1.4974,-1.5066,-1.5067,-1.5069,-1.5083,0,0,0,0,0,0,-1.4824,-1.4833,-1.4846,-1.4867,-1.4875,-1.4921,-1.4905,-1.4907,-1.492,-1.4919,-1.494,-1.4942,-1.4947,-1.498,-1.4986,-1.5003,-1.4976,-1.5064,-1.5067,-1.5068,-1.5081,-1.5085,-1.5088,0,0,0,0,0,-1.4821,-1.4849,-1.4847,-1.4854,-1.4893,-1.4922,-1.4927,-1.4932,-1.4922,-1.4935,-1.4945,-1.4941,-1.4997,-1.4983,-1.499,-1.5008,-1.5063,-1.5066,-1.5068,-1.508,-1.5084,-1.5088,0,0,0,0,0,0,-1.483,-1.4851,-1.485,-1.4885,-1.4902,-1.4921,-1.4938,-1.4937,-1.4956,-1.4954,-1.4959,-1.4964,-1.4995,-1.5005,-1.4989,-1.5043,-1.5029,-1.5033,-1.5035,-1.504,-1.5043,-1.504,-1.4978,0,0,0,0,0,-1.4836,-1.4858,-1.4876,-1.4905,-1.4914,-1.4925,-1.4937,-1.494,-1.4957,-1.4964,-1.4976,-1.4992,-1.5013,-1.5027,-1.5047,-1.5083,-1.5087,-1.5098,-1.5102,-1.5104,-1.5108,-1.5126,-1.5132,-1.5078,-1.5078,-1.5078,0,0,-1.4849,-1.4864,-1.4877,-1.4907,-1.492,-1.4943,-1.493,-1.4954,-1.4971,-1.4967,-1.4997,-1.5007,-1.5025,-1.5059,-1.5074,-1.5067,-1.5124,-1.5108,-1.511,-1.5111,-1.513,-1.5135,-1.5139,-1.5079,-1.5079,-1.5079,0,0,-1.4884,-1.4897,-1.4923,-1.4937,-1.4956,-1.4963,-1.497,-1.4989,-1.4995,-1.5025,-1.5023,-1.5042,-1.5079,-1.5092,-1.5103,-1.5143,-1.514,-1.5149,-1.5167,-1.5186,-1.519,-1.5194,-1.5207,-1.5212,-1.5153,-1.5153,-1.5153,0,-1.4897,-1.4931,-1.4937,-1.4961,-1.4974,-1.4972,-1.4998,-1.501,-1.5036,-1.5045,-1.5037,-1.5083,-1.5095,-1.5131,-1.5141,-1.515,-1.5157,-1.5147,-1.5189,-1.5193,-1.5196,-1.5209,-1.5214,-1.5154,-1.5153,-1.5153,-1.5153,0,-1.4946,-1.497,-1.4988,-1.5013,-1.5028,-1.5053,-1.5062,-1.5076,-1.5078,-1.5085,-1.5116,-1.5131,-1.5154,-1.5162,-1.5164,-1.5199,-1.5194,-1.5188,-1.5174,-1.5202,-1.5214,-1.522,-1.5155,-1.5155,-1.5154,-1.5154,0,0,-1.4988,-1.5015,-1.5022,-1.5033,-1.5054,-1.5072,-1.5097,-1.512,-1.5132,-1.5149,-1.517,-1.5201,-1.5195,-1.5208,-1.5211,-1.5227,-1.5256,-1.5218,-1.5219,-1.5225,-1.5295,-1.5299,-1.5305,-1.5255,-1.5256,-1.5256,-1.5293,0,-1.5024,-1.5068,-1.5074,-1.5112,-1.5134,-1.5132,-1.5153,-1.5169,-1.5176,-1.5195,-1.5204,-1.5225,-1.5216,-1.5224,-1.524,-1.5249,-1.527,-1.5247,-1.5273,-1.5274,-1.5268,-1.5311,-1.5316,-1.535,-1.5298,-1.5299,-1.5299,0,-1.5072,-1.5091,-1.5132,-1.5151,-1.516,-1.5179,-1.52,-1.5218,-1.5235,-1.524,-1.5254,-1.5255,-1.528,-1.5266,-1.53,-1.5283,-1.5295,-1.5301,-1.5302,-1.5304,-1.5288,-1.5314,-1.5361,-1.5365,-1.5307,-1.5306,-1.5306,0,-1.5098,-1.5134,-1.5163,-1.5172,-1.5194,-1.5208,-1.5218,-1.5234,-1.5247,-1.5265,-1.5274,-1.5295,-1.5306,-1.5322,-1.5328,-1.5317,-1.5362,-1.5348,-1.5366,-1.5366,-1.5375,-1.5374,-1.5423,-1.5383,-1.5383,-1.5383,-1.5383,0,-1.5137,-1.5162,-1.5174,-1.5192,-1.522,-1.5226,-1.5253,-1.5262,-1.5276,-1.5295,-1.5295,-1.5313,-1.5321,-1.534,-1.5345,-1.5372,-1.5377,-1.5381,-1.5382,-1.5381,-1.538,-1.5388,-1.5385,-1.5384,-1.5384,-1.5384,-1.5383,0,-1.517,-1.5179,-1.5211,-1.5229,-1.5234,-1.5254,-1.527,-1.5286,-1.5294,-1.5318,-1.5324,-1.5336,-1.5358,-1.5366,-1.5393,-1.5397,-1.5428,-1.5427,-1.5422,-1.5422,-1.5439,-1.5437,-1.5495,-1.5502,-1.5457,-1.5458,-1.5458,0,-1.5195,-1.5214,-1.5234,-1.5247,-1.5258,-1.5279,-1.5292,-1.5299,-1.5313,-1.5333,-1.5348,-1.537,-1.5388,-1.5424,-1.5434,-1.5455,-1.5454,-1.5473,-1.5457,-1.5455,-1.5454,-1.5453,-1.5454,-1.5476,-1.5476,-1.5477,-1.5477,0,-1.5237,-1.524,-1.526,-1.5281,-1.5297,-1.5314,-1.533,-1.5341,-1.535,-1.5365,-1.5388,-1.5402,-1.543,-1.5452,-1.5473,-1.5482,-1.5481,-1.5482,-1.5487,-1.5486,-1.5482,-1.5483,-1.543,-1.548,-1.548,-1.548,-1.5479,-1.5479,-1.5266,-1.5282,-1.53,-1.5321,-1.5334,-1.535,-1.5366,-1.5376,-1.5395,-1.5418,-1.5421,-1.5445,-1.5462,-1.549,-1.5501,-1.552,-1.5514,-1.5522,-1.5524,-1.5525,-1.5526,-1.5479,-1.5523,-1.5523,-1.5523,-1.5523,-1.5523,0,-1.5307,-1.5318,-1.5338,-1.5361,-1.5378,-1.5376,-1.5394,-1.5408,-1.5429,-1.5445,-1.5463,-1.5489,-1.551,-1.5522,-1.5543,-1.5556,-1.5556,-1.5561,-1.556,-1.5563,-1.553,-1.5523,-1.5561,-1.5561,-1.5561,-1.5561,-1.5561,-1.5561,-1.5331,-1.5359,-1.5364,-1.5399,-1.5409,-1.5434,-1.5444,-1.5458,-1.547,-1.5499,-1.5517,-1.5525,-1.5539,-1.5561,-1.558,-1.5584,-1.5591,-1.5597,-1.56,-1.5569,-1.5565,-1.5561,-1.5555,-1.5599,-1.5599,-1.563,-1.5631,-1.5631]}]]